EFW34B EGKK-LDDU

Flight info

Callsign EFW34B
Flight time 2h 24m
Altitude 35000
Route MIMFO1M MIMFO Y312 DVR UL9 KONAN DCT KOK DCT KOMOB DCT KRH DCT UTABA DCT BEMKI DCT ELMEM DCT DIRAB DCT PEVAL DCT SPL DCT SIPAL SIPAL2Y
Aircraft A321/M-SDE3FGHIRWY/LB1

Departure

Time 2026-05-04 13:22
Airport London Gatwick Airport (EGKK)

Arrival

Time 2026-05-04 15:47
Airport Dubrovnik Ruđer Bošković Airport (LDDU)
Time Latitude Longitude Altitude Speed Heading
2026-05-04 12:45 51.15541 -0.16536 204 ft 0 kts 348°
2026-05-04 13:03 51.15519 -0.16529 213 ft 4 kts 347°
2026-05-04 13:03 51.15495 -0.16514 210 ft 4 kts 319°
2026-05-04 13:04 51.15482 -0.16482 214 ft 4 kts 263°
2026-05-04 13:04 51.15484 -0.16468 211 ft 0 kts 257°
2026-05-04 13:04 51.15484 -0.16467 211 ft 0 kts 257°
2026-05-04 13:09 51.15483 -0.16477 213 ft 3 kts 257°
2026-05-04 13:09 51.15467 -0.16558 206 ft 11 kts 251°
2026-05-04 13:09 51.15448 -0.16704 212 ft 16 kts 268°
2026-05-04 13:10 51.15438 -0.16896 204 ft 18 kts 257°
2026-05-04 13:10 51.15413 -0.17071 210 ft 11 kts 258°
2026-05-04 13:10 51.15396 -0.17155 212 ft 6 kts 242°
2026-05-04 13:10 51.15379 -0.17230 207 ft 8 kts 252°
2026-05-04 13:11 51.15360 -0.17322 213 ft 9 kts 246°
2026-05-04 13:11 51.15306 -0.17419 209 ft 14 kts 247°
2026-05-04 13:11 51.15282 -0.17585 205 ft 17 kts 257°
2026-05-04 13:11 51.15256 -0.17771 213 ft 17 kts 257°
2026-05-04 13:12 51.15231 -0.17954 206 ft 15 kts 257°
2026-05-04 13:12 51.15219 -0.18042 205 ft 0 kts 258°
2026-05-04 13:12 51.15215 -0.18070 212 ft 6 kts 258°
2026-05-04 13:13 51.15206 -0.18142 204 ft 7 kts 258°
2026-05-04 13:13 51.15195 -0.18224 208 ft 8 kts 258°
2026-05-04 13:13 51.15183 -0.18345 209 ft 14 kts 261°
2026-05-04 13:13 51.15170 -0.18447 210 ft 9 kts 257°
2026-05-04 13:14 51.15156 -0.18550 213 ft 10 kts 257°
2026-05-04 13:14 51.15140 -0.18663 205 ft 11 kts 258°
2026-05-04 13:14 51.15123 -0.18789 206 ft 12 kts 258°
2026-05-04 13:14 51.15105 -0.18923 206 ft 13 kts 258°
2026-05-04 13:15 51.15085 -0.19060 211 ft 13 kts 257°
2026-05-04 13:15 51.15066 -0.19202 207 ft 14 kts 257°
2026-05-04 13:15 51.15045 -0.19353 204 ft 14 kts 258°
2026-05-04 13:15 51.15027 -0.19489 214 ft 11 kts 258°
2026-05-04 13:16 51.15009 -0.19613 211 ft 12 kts 257°
2026-05-04 13:16 51.14991 -0.19746 204 ft 13 kts 257°
2026-05-04 13:16 51.14971 -0.19889 213 ft 14 kts 258°
2026-05-04 13:16 51.14950 -0.20045 207 ft 15 kts 258°
2026-05-04 13:17 51.14927 -0.20213 207 ft 16 kts 257°
2026-05-04 13:17 51.14901 -0.20388 203 ft 17 kts 257°
2026-05-04 13:17 51.14875 -0.20572 211 ft 17 kts 257°
2026-05-04 13:17 51.14849 -0.20762 206 ft 18 kts 258°
2026-05-04 13:18 51.14822 -0.20956 209 ft 18 kts 258°
2026-05-04 13:18 51.14792 -0.21150 213 ft 18 kts 250°
2026-05-04 13:18 51.14763 -0.21333 204 ft 17 kts 257°
2026-05-04 13:18 51.14692 -0.21393 207 ft 11 kts 155°
2026-05-04 13:19 51.14633 -0.21335 206 ft 9 kts 162°
2026-05-04 13:19 51.14566 -0.21301 206 ft 11 kts 156°
2026-05-04 13:19 51.14521 -0.21196 210 ft 12 kts 96°
2026-05-04 13:19 51.14528 -0.21111 209 ft 0 kts 78°
2026-05-04 13:21 51.14529 -0.21104 208 ft 5 kts 78°
2026-05-04 13:21 51.14592 -0.20661 211 ft 77 kts 77°
2026-05-04 13:21 51.14754 -0.19486 215 ft 138 kts 77°
2026-05-04 13:21 51.14973 -0.17766 240 ft 180 kts 78°
2026-05-04 13:22 51.15177 -0.15701 755 ft 188 kts 82°
2026-05-04 13:22 51.15319 -0.13590 1408 ft 195 kts 84°
2026-05-04 13:22 51.15566 -0.11391 1733 ft 211 kts 76°
2026-05-04 13:22 51.15956 -0.08995 1876 ft 236 kts 75°
2026-05-04 13:23 51.16399 -0.06353 2239 ft 254 kts 75°
2026-05-04 13:23 51.16790 -0.03590 2909 ft 258 kts 84°
2026-05-04 13:23 51.16833 -0.00751 3623 ft 261 kts 90°
2026-05-04 13:23 51.16811 0.02149 4323 ft 264 kts 91°
2026-05-04 13:24 51.16764 0.05098 5019 ft 268 kts 91°
2026-05-04 13:24 51.16705 0.08091 5692 ft 273 kts 92°
2026-05-04 13:24 51.16643 0.11144 5952 ft 276 kts 92°
2026-05-04 13:25 51.16536 0.17259 5983 ft 276 kts 90°
2026-05-04 13:25 51.16532 0.20338 6404 ft 279 kts 90°
2026-05-04 13:25 51.16543 0.23445 7112 ft 281 kts 90°
2026-05-04 13:25 51.16556 0.26569 7801 ft 283 kts 90°
2026-05-04 13:26 51.16567 0.29729 8460 ft 286 kts 90°
2026-05-04 13:26 51.16578 0.32879 9118 ft 289 kts 91°
2026-05-04 13:26 51.16588 0.36089 9798 ft 291 kts 91°
2026-05-04 13:26 51.16595 0.39322 10443 ft 294 kts 91°
2026-05-04 13:27 51.16597 0.42616 11060 ft 297 kts 91°
2026-05-04 13:27 51.16595 0.45923 11653 ft 300 kts 91°
2026-05-04 13:27 51.16593 0.49264 12238 ft 304 kts 91°
2026-05-04 13:27 51.16592 0.52739 12380 ft 323 kts 91°
2026-05-04 13:28 51.16591 0.56424 12516 ft 341 kts 91°
2026-05-04 13:28 51.16590 0.60282 12729 ft 355 kts 91°
2026-05-04 13:28 51.16588 0.64258 13205 ft 360 kts 91°
2026-05-04 13:28 51.16584 0.68226 13742 ft 363 kts 91°
2026-05-04 13:29 51.16579 0.72272 14262 ft 366 kts 91°
2026-05-04 13:29 51.16572 0.76339 14815 ft 368 kts 91°
2026-05-04 13:29 51.16562 0.80438 15337 ft 371 kts 91°
2026-05-04 13:29 51.16551 0.84556 15867 ft 373 kts 91°
2026-05-04 13:30 51.16536 0.88706 16360 ft 375 kts 92°
2026-05-04 13:30 51.16519 0.92880 16840 ft 378 kts 92°
2026-05-04 13:30 51.16502 0.97082 16989 ft 378 kts 92°
2026-05-04 13:30 51.16484 1.01275 17023 ft 378 kts 92°
2026-05-04 13:31 51.16463 1.05464 17023 ft 378 kts 92°
2026-05-04 13:31 51.16441 1.09653 17021 ft 378 kts 92°
2026-05-04 13:31 51.16419 1.13847 17020 ft 378 kts 92°
2026-05-04 13:31 51.16397 1.18039 17022 ft 378 kts 92°
2026-05-04 13:32 51.16370 1.22246 17279 ft 381 kts 92°
2026-05-04 13:32 51.16339 1.26425 17804 ft 383 kts 92°
2026-05-04 13:32 51.16306 1.30675 18303 ft 385 kts 92°
2026-05-04 13:32 51.16273 1.34967 18715 ft 388 kts 92°
2026-05-04 13:33 51.16190 1.39273 19111 ft 390 kts 94°
2026-05-04 13:33 51.16020 1.43601 19496 ft 392 kts 96°
2026-05-04 13:33 51.15796 1.47953 19862 ft 395 kts 96°
2026-05-04 13:33 51.15549 1.52329 20237 ft 398 kts 97°
2026-05-04 13:34 51.15301 1.56729 20627 ft 400 kts 97°
2026-05-04 13:34 51.15058 1.61171 21012 ft 403 kts 97°
2026-05-04 13:34 51.14826 1.65625 21385 ft 406 kts 96°
2026-05-04 13:34 51.14599 1.70127 21751 ft 408 kts 96°
2026-05-04 13:35 51.14375 1.74642 22118 ft 411 kts 96°
2026-05-04 13:35 51.13924 1.83711 22846 ft 416 kts 97°
2026-05-04 13:35 51.13691 1.88318 23218 ft 418 kts 97°
2026-05-04 13:36 51.13451 1.92972 23519 ft 422 kts 97°
2026-05-04 13:36 51.13207 1.97649 23795 ft 425 kts 97°
2026-05-04 13:36 51.12961 2.02354 24107 ft 427 kts 97°
2026-05-04 13:36 51.12713 2.07079 24427 ft 429 kts 97°
2026-05-04 13:37 51.12463 2.11826 24748 ft 430 kts 98°
2026-05-04 13:37 51.12295 2.14974 24955 ft 431 kts 98°
2026-05-04 13:37 51.12036 2.19754 25277 ft 433 kts 98°
2026-05-04 13:37 51.11773 2.24533 25595 ft 434 kts 98°
2026-05-04 13:38 51.11508 2.29326 25893 ft 436 kts 98°
2026-05-04 13:38 51.11152 2.35715 26304 ft 438 kts 98°
2026-05-04 13:38 51.10969 2.38985 26488 ft 440 kts 98°
2026-05-04 13:38 51.10696 2.43855 26723 ft 443 kts 98°
2026-05-04 13:39 51.10422 2.48740 27016 ft 444 kts 98°
2026-05-04 13:39 51.10146 2.53579 27314 ft 446 kts 98°
2026-05-04 13:39 51.09864 2.58505 27617 ft 447 kts 99°
2026-05-04 13:39 51.09381 2.63384 27908 ft 444 kts 107°
2026-05-04 13:40 51.08434 2.68040 28197 ft 441 kts 116°
2026-05-04 13:40 51.07082 2.72407 28489 ft 439 kts 122°
2026-05-04 13:40 51.05641 2.76710 28784 ft 441 kts 122°
2026-05-04 13:40 51.04202 2.81021 29070 ft 442 kts 122°
2026-05-04 13:41 51.02759 2.85348 29329 ft 443 kts 122°
2026-05-04 13:41 51.01340 2.89614 29639 ft 443 kts 122°
2026-05-04 13:41 50.99898 2.93948 29914 ft 443 kts 122°
2026-05-04 13:42 50.97002 3.02622 30355 ft 445 kts 123°
2026-05-04 13:42 50.95548 3.06955 30614 ft 444 kts 123°
2026-05-04 13:42 50.94092 3.11271 30860 ft 443 kts 123°
2026-05-04 13:42 50.92634 3.15591 31096 ft 443 kts 123°
2026-05-04 13:43 50.91200 3.19839 31331 ft 443 kts 123°
2026-05-04 13:43 50.89742 3.24149 31565 ft 443 kts 123°
2026-05-04 13:43 50.88286 3.28436 31800 ft 442 kts 123°
2026-05-04 13:43 50.86827 3.32727 31986 ft 443 kts 123°
2026-05-04 13:44 50.85361 3.37031 32185 ft 443 kts 123°
2026-05-04 13:44 50.83896 3.41332 32420 ft 443 kts 123°
2026-05-04 13:44 50.82432 3.45620 32639 ft 443 kts 123°
2026-05-04 13:44 50.80967 3.49906 32892 ft 442 kts 123°
2026-05-04 13:45 50.79505 3.54179 33141 ft 442 kts 124°
2026-05-04 13:45 50.78042 3.58445 33374 ft 441 kts 124°
2026-05-04 13:45 50.76578 3.62702 33598 ft 441 kts 124°
2026-05-04 13:45 50.75111 3.66960 33842 ft 441 kts 124°
2026-05-04 13:46 50.73640 3.71214 34040 ft 440 kts 124°
2026-05-04 13:46 50.72169 3.75463 34198 ft 441 kts 124°
2026-05-04 13:46 50.70716 3.79658 34322 ft 442 kts 124°
2026-05-04 13:46 50.69240 3.83918 34463 ft 443 kts 124°
2026-05-04 13:47 50.67758 3.88191 34613 ft 443 kts 124°
2026-05-04 13:47 50.66276 3.92461 34784 ft 443 kts 124°
2026-05-04 13:47 50.64793 3.96732 34961 ft 444 kts 124°
2026-05-04 13:47 50.63308 4.00996 35133 ft 444 kts 124°
2026-05-04 13:48 50.61818 4.05258 35297 ft 444 kts 124°
2026-05-04 13:48 50.60324 4.09517 35453 ft 444 kts 124°
2026-05-04 13:48 50.58829 4.13775 35611 ft 444 kts 124°
2026-05-04 13:48 50.57336 4.18029 35766 ft 444 kts 124°
2026-05-04 13:49 50.55858 4.22236 35942 ft 444 kts 123°
2026-05-04 13:49 50.54359 4.26492 36001 ft 444 kts 123°
2026-05-04 13:49 50.51366 4.34981 36004 ft 443 kts 124°
2026-05-04 13:50 50.48367 4.43443 36002 ft 443 kts 124°
2026-05-04 13:50 50.45353 4.51903 36003 ft 443 kts 124°
2026-05-04 13:51 50.42336 4.60344 35999 ft 443 kts 124°
2026-05-04 13:51 50.39325 4.68757 35977 ft 444 kts 124°
2026-05-04 13:52 50.34774 4.81431 35987 ft 445 kts 124°
2026-05-04 13:53 50.31749 4.89808 35991 ft 445 kts 124°
2026-05-04 13:53 50.28688 4.98253 35999 ft 446 kts 124°
2026-05-04 13:54 50.24086 5.10899 35987 ft 446 kts 124°
2026-05-04 13:55 50.19488 5.23516 36001 ft 447 kts 124°
2026-05-04 13:55 50.14833 5.36158 36008 ft 447 kts 125°
2026-05-04 13:56 50.11808 5.44668 36018 ft 450 kts 122°
2026-05-04 13:57 50.07516 5.57676 36001 ft 450 kts 122°
2026-05-04 13:58 50.01699 5.74850 36016 ft 450 kts 123°
2026-05-04 13:58 49.97272 5.87727 36026 ft 450 kts 123°
2026-05-04 13:59 49.94331 5.96307 36009 ft 450 kts 123°
2026-05-04 14:00 49.89895 6.09174 36022 ft 450 kts 123°
2026-05-04 14:00 49.85458 6.21932 36022 ft 450 kts 123°
2026-05-04 14:01 49.82480 6.30470 36027 ft 450 kts 123°
2026-05-04 14:02 49.78010 6.43265 36003 ft 451 kts 123°
2026-05-04 14:02 49.75018 6.51803 36011 ft 451 kts 123°
2026-05-04 14:03 49.72016 6.60312 36018 ft 451 kts 123°
2026-05-04 14:03 49.69014 6.68774 36011 ft 451 kts 123°
2026-05-04 14:04 49.64492 6.81492 35995 ft 451 kts 123°
2026-05-04 14:04 49.61465 6.89980 36013 ft 451 kts 123°
2026-05-04 14:05 49.56912 7.02702 36026 ft 452 kts 124°
2026-05-04 14:06 49.53867 7.11151 35739 ft 450 kts 124°
2026-05-04 14:06 49.52347 7.15363 35197 ft 448 kts 124°
2026-05-04 14:06 49.50843 7.19535 34973 ft 446 kts 124°
2026-05-04 14:07 49.47818 7.27911 35009 ft 448 kts 124°
2026-05-04 14:07 49.44775 7.36288 35008 ft 449 kts 124°
2026-05-04 14:08 49.41744 7.44610 35008 ft 449 kts 124°
2026-05-04 14:08 49.38687 7.52979 34989 ft 449 kts 124°
2026-05-04 14:09 49.34093 7.65493 34978 ft 450 kts 124°
2026-05-04 14:10 49.29458 7.78068 34992 ft 451 kts 124°
2026-05-04 14:10 49.26385 7.86387 35002 ft 451 kts 124°
2026-05-04 14:11 49.23280 7.94748 35008 ft 451 kts 124°
2026-05-04 14:11 49.18618 8.07248 34983 ft 452 kts 124°
2026-05-04 14:12 49.15492 8.15595 34984 ft 453 kts 124°
2026-05-04 14:13 49.10798 8.28084 34994 ft 454 kts 124°
2026-05-04 14:13 49.07639 8.36459 34993 ft 454 kts 124°
2026-05-04 14:14 49.04488 8.44800 34997 ft 454 kts 124°
2026-05-04 14:14 48.99549 8.57092 34999 ft 448 kts 134°
2026-05-04 14:15 48.95114 8.63490 34999 ft 440 kts 146°
2026-05-04 14:15 48.90305 8.69292 34999 ft 440 kts 146°
2026-05-04 14:16 48.83135 8.77940 34976 ft 440 kts 146°
2026-05-04 14:17 48.75907 8.86604 34980 ft 441 kts 146°
2026-05-04 14:18 48.68682 8.95225 34979 ft 442 kts 146°
2026-05-04 14:19 48.58999 9.06743 34985 ft 442 kts 146°
2026-05-04 14:19 48.54153 9.12489 34975 ft 442 kts 146°
2026-05-04 14:20 48.49308 9.18237 34984 ft 443 kts 146°
2026-05-04 14:20 48.44460 9.23950 34987 ft 443 kts 146°
2026-05-04 14:21 48.37195 9.32483 34990 ft 443 kts 146°
2026-05-04 14:21 48.32357 9.38158 34989 ft 443 kts 146°
2026-05-04 14:22 48.27491 9.43848 34990 ft 443 kts 146°
2026-05-04 14:22 48.22650 9.49564 34975 ft 443 kts 144°
2026-05-04 14:23 48.16322 9.57417 34989 ft 443 kts 143°
2026-05-04 14:24 48.10814 9.64256 34991 ft 442 kts 144°
2026-05-04 14:24 48.06824 9.69152 34992 ft 442 kts 144°
2026-05-04 14:25 48.02051 9.74973 34987 ft 442 kts 144°
2026-05-04 14:25 47.94937 9.83615 34979 ft 441 kts 144°
2026-05-04 14:26 47.90167 9.89403 34986 ft 441 kts 144°
2026-05-04 14:26 47.85430 9.95146 34990 ft 441 kts 144°
2026-05-04 14:27 47.80674 10.00908 34989 ft 440 kts 144°
2026-05-04 14:27 47.75903 10.06648 34984 ft 441 kts 144°
2026-05-04 14:28 47.71138 10.12378 34986 ft 440 kts 144°
2026-05-04 14:28 47.66399 10.18074 34989 ft 440 kts 144°
2026-05-04 14:29 47.56866 10.29463 35010 ft 440 kts 144°
2026-05-04 14:30 47.51839 10.34564 35003 ft 438 kts 149°
2026-05-04 14:31 47.44188 10.41984 35030 ft 438 kts 149°
2026-05-04 14:32 47.33975 10.51874 35031 ft 438 kts 150°
2026-05-04 14:32 47.28872 10.56777 35028 ft 438 kts 150°
2026-05-04 14:33 47.23856 10.61842 35038 ft 440 kts 147°
2026-05-04 14:33 47.18912 10.67135 35038 ft 440 kts 147°
2026-05-04 14:34 47.13953 10.72431 35041 ft 439 kts 147°
2026-05-04 14:34 47.08979 10.77648 35035 ft 439 kts 147°
2026-05-04 14:35 47.04005 10.82817 35035 ft 438 kts 148°
2026-05-04 14:35 46.99064 10.87948 35051 ft 438 kts 148°
2026-05-04 14:36 46.94082 10.93114 35060 ft 437 kts 147°
2026-05-04 14:36 46.89116 10.98246 35059 ft 437 kts 148°
2026-05-04 14:37 46.84170 11.03344 35062 ft 437 kts 148°
2026-05-04 14:37 46.79490 11.09076 35047 ft 441 kts 136°
2026-05-04 14:38 46.75259 11.15508 35046 ft 442 kts 137°
2026-05-04 14:38 46.70980 11.21962 35050 ft 442 kts 137°
2026-05-04 14:39 46.66690 11.28413 35030 ft 443 kts 137°
2026-05-04 14:39 46.62397 11.34847 35021 ft 442 kts 137°
2026-05-04 14:40 46.55977 11.44452 35013 ft 444 kts 137°
2026-05-04 14:40 46.51682 11.50884 35019 ft 444 kts 137°
2026-05-04 14:41 46.47366 11.57320 35029 ft 444 kts 137°
2026-05-04 14:42 46.38730 11.70110 35083 ft 444 kts 137°
2026-05-04 14:42 46.34401 11.76516 35085 ft 444 kts 137°
2026-05-04 14:43 46.30096 11.82870 35084 ft 445 kts 137°
2026-05-04 14:43 46.25758 11.89241 35086 ft 445 kts 137°
2026-05-04 14:44 46.21412 11.95618 35087 ft 445 kts 137°
2026-05-04 14:44 46.17060 12.01984 35085 ft 445 kts 137°
2026-05-04 14:45 46.12715 12.08334 35079 ft 445 kts 137°
2026-05-04 14:45 46.08356 12.14685 35077 ft 445 kts 137°
2026-05-04 14:46 46.04012 12.20994 35082 ft 445 kts 137°
2026-05-04 14:46 45.99644 12.27334 35092 ft 445 kts 137°
2026-05-04 14:47 45.95273 12.33667 35088 ft 445 kts 137°
2026-05-04 14:47 45.90919 12.39948 35094 ft 445 kts 137°
2026-05-04 14:48 45.86537 12.46253 35085 ft 446 kts 137°
2026-05-04 14:48 45.82145 12.52563 35090 ft 446 kts 137°
2026-05-04 14:49 45.77783 12.58811 35078 ft 446 kts 137°
2026-05-04 14:49 45.73389 12.65089 35066 ft 446 kts 137°
2026-05-04 14:50 45.68995 12.71344 35068 ft 446 kts 137°
2026-05-04 14:50 45.64595 12.77612 35071 ft 446 kts 137°
2026-05-04 14:51 45.60194 12.83867 35081 ft 446 kts 138°
2026-05-04 14:51 45.55779 12.90121 35085 ft 446 kts 138°
2026-05-04 14:52 45.51393 12.96330 35082 ft 446 kts 138°
2026-05-04 14:52 45.46994 13.02535 35087 ft 447 kts 138°
2026-05-04 14:53 45.42560 13.08759 35064 ft 447 kts 138°
2026-05-04 14:53 45.38121 13.14987 35066 ft 448 kts 138°
2026-05-04 14:54 45.33692 13.21193 35080 ft 448 kts 138°
2026-05-04 14:54 45.29458 13.27734 35091 ft 451 kts 131°
2026-05-04 14:55 45.25535 13.34706 35094 ft 451 kts 131°
2026-05-04 14:55 45.21633 13.41613 35102 ft 451 kts 131°
2026-05-04 14:56 45.17694 13.48568 35103 ft 451 kts 131°
2026-05-04 14:56 45.13755 13.55507 35110 ft 452 kts 131°
2026-05-04 14:57 45.09802 13.62440 35114 ft 452 kts 131°
2026-05-04 14:57 45.05875 13.69336 35117 ft 452 kts 131°
2026-05-04 14:58 45.01922 13.76257 35127 ft 452 kts 131°
2026-05-04 14:58 44.97954 13.83175 35124 ft 452 kts 131°
2026-05-04 14:59 44.93982 13.90083 35119 ft 452 kts 131°
2026-05-04 15:00 44.88036 14.00397 35097 ft 454 kts 132°
2026-05-04 15:00 44.84039 14.07311 35112 ft 455 kts 132°
2026-05-04 15:01 44.78042 14.17661 35120 ft 456 kts 131°
2026-05-04 15:01 44.74011 14.24592 35126 ft 457 kts 131°
2026-05-04 15:02 44.69968 14.31514 35125 ft 458 kts 131°
2026-05-04 15:02 44.65916 14.38446 35133 ft 458 kts 131°
2026-05-04 15:03 44.61882 14.45326 35124 ft 459 kts 131°
2026-05-04 15:03 44.57812 14.52256 35125 ft 459 kts 131°
2026-05-04 15:04 44.53748 14.59165 35136 ft 459 kts 131°
2026-05-04 15:04 44.49691 14.66038 35136 ft 459 kts 131°
2026-05-04 15:05 44.45611 14.72930 35140 ft 459 kts 131°
2026-05-04 15:05 44.41522 14.79811 35132 ft 459 kts 131°
2026-05-04 15:06 44.37434 14.86697 35131 ft 460 kts 131°
2026-05-04 15:07 44.31281 14.97023 35128 ft 460 kts 132°
2026-05-04 15:07 44.27187 15.03848 35126 ft 460 kts 132°
2026-05-04 15:08 44.23068 15.10720 35134 ft 460 kts 131°
2026-05-04 15:08 44.18985 15.17539 35132 ft 460 kts 131°
2026-05-04 15:09 44.14871 15.24371 35117 ft 460 kts 132°
2026-05-04 15:09 44.10740 15.31197 35116 ft 461 kts 132°
2026-05-04 15:10 44.04551 15.41420 35122 ft 462 kts 131°
2026-05-04 15:11 43.99026 15.50509 35129 ft 462 kts 131°
2026-05-04 15:11 43.94865 15.57339 35137 ft 462 kts 131°
2026-05-04 15:12 43.90696 15.64155 35124 ft 462 kts 131°
2026-05-04 15:12 43.86554 15.70912 35130 ft 463 kts 131°
2026-05-04 15:13 43.82378 15.77721 35137 ft 463 kts 131°
2026-05-04 15:13 43.78190 15.84531 35139 ft 464 kts 131°
2026-05-04 15:14 43.74020 15.91288 35141 ft 464 kts 131°
2026-05-04 15:14 43.69821 15.98085 35144 ft 465 kts 131°
2026-05-04 15:15 43.65610 16.04883 35144 ft 465 kts 130°
2026-05-04 15:15 43.61387 16.11679 35146 ft 466 kts 130°
2026-05-04 15:16 43.55077 16.21820 35153 ft 466 kts 131°
2026-05-04 15:17 43.48884 16.32156 35154 ft 466 kts 122°
2026-05-04 15:17 43.43657 16.43480 35146 ft 468 kts 122°
2026-05-04 15:18 43.40140 16.51024 35129 ft 468 kts 122°
2026-05-04 15:19 43.34877 16.62300 35137 ft 469 kts 122°
2026-05-04 15:19 43.29574 16.73622 35133 ft 469 kts 122°
2026-05-04 15:20 43.26041 16.81172 35123 ft 470 kts 122°
2026-05-04 15:20 43.22520 16.88668 35122 ft 470 kts 122°
2026-05-04 15:21 43.18957 16.96201 35119 ft 471 kts 122°
2026-05-04 15:21 43.15026 17.03394 35095 ft 473 kts 136°
2026-05-04 15:22 43.12489 17.06275 35091 ft 474 kts 146°
2026-05-04 15:22 43.09639 17.08538 34758 ft 475 kts 156°
2026-05-04 15:22 43.03342 17.11228 33080 ft 479 kts 167°
2026-05-04 15:23 43.00122 17.12390 32481 ft 476 kts 166°
2026-05-04 15:23 42.96927 17.13565 31936 ft 472 kts 166°
2026-05-04 15:23 42.93769 17.14741 31421 ft 468 kts 166°
2026-05-04 15:23 42.90638 17.15913 30911 ft 465 kts 166°
2026-05-04 15:24 42.84286 17.18280 30107 ft 490 kts 166°
2026-05-04 15:24 42.77503 17.20788 29208 ft 518 kts 166°
2026-05-04 15:25 42.74009 17.22075 29361 ft 519 kts 166°
2026-05-04 15:25 42.70521 17.23356 29846 ft 504 kts 166°
2026-05-04 15:25 42.67212 17.24571 31223 ft 482 kts 166°
2026-05-04 15:26 42.60818 17.26932 30805 ft 492 kts 166°
2026-05-04 15:26 42.57594 17.28694 30057 ft 506 kts 150°
2026-05-04 15:26 42.52566 17.35361 29116 ft 510 kts 119°
2026-05-04 15:27 42.50873 17.39585 28692 ft 511 kts 116°
2026-05-04 15:27 42.47587 17.48073 27977 ft 512 kts 116°
2026-05-04 15:28 42.44281 17.56650 27204 ft 514 kts 116°
2026-05-04 15:28 42.42612 17.60946 26839 ft 514 kts 116°
2026-05-04 15:28 42.39271 17.69505 26078 ft 514 kts 116°
2026-05-04 15:29 42.37599 17.73775 25730 ft 514 kts 116°
2026-05-04 15:30 42.30963 17.90611 24723 ft 504 kts 115°
2026-05-04 15:30 42.30604 18.03828 24092 ft 473 kts 59°
2026-05-04 15:31 42.35273 18.09599 23671 ft 456 kts 19°
2026-05-04 15:31 42.38352 18.10439 23423 ft 452 kts 360°
2026-05-04 15:32 42.46341 18.04363 21772 ft 467 kts 302°
2026-05-04 15:32 42.49464 17.97309 21088 ft 413 kts 297°
2026-05-04 15:33 42.50299 17.90021 20604 ft 377 kts 273°
2026-05-04 15:34 42.51903 17.80087 17851 ft 372 kts 315°
2026-05-04 15:34 42.54014 17.78061 16612 ft 375 kts 339°
2026-05-04 15:34 42.59132 17.78335 14136 ft 385 kts 27°
2026-05-04 15:35 42.62377 17.83889 11826 ft 390 kts 76°
2026-05-04 15:35 42.62458 17.87532 10860 ft 388 kts 100°
2026-05-04 15:35 42.61432 17.90880 9901 ft 385 kts 124°
2026-05-04 15:36 42.57214 17.95190 7787 ft 379 kts 144°
2026-05-04 15:36 42.55267 17.97473 7348 ft 358 kts 132°
2026-05-04 15:36 42.53775 18.00014 7222 ft 331 kts 122°
2026-05-04 15:37 42.52649 18.02617 7098 ft 309 kts 118°
2026-05-04 15:37 42.51655 18.05087 6975 ft 289 kts 117°
2026-05-04 15:37 42.50735 18.07421 6853 ft 272 kts 117°
2026-05-04 15:37 42.49873 18.09629 6730 ft 258 kts 117°
2026-05-04 15:38 42.49043 18.11764 6615 ft 255 kts 117°
2026-05-04 15:38 42.48242 18.13816 6481 ft 244 kts 117°
2026-05-04 15:38 42.47454 18.15831 6362 ft 241 kts 117°
2026-05-04 15:38 42.46678 18.17807 6260 ft 232 kts 117°
2026-05-04 15:39 42.45930 18.19712 6122 ft 226 kts 117°
2026-05-04 15:39 42.45192 18.21586 6004 ft 225 kts 117°
2026-05-04 15:39 42.43717 18.25319 5676 ft 222 kts 118°
2026-05-04 15:40 42.42983 18.27165 5630 ft 223 kts 118°
2026-05-04 15:40 42.42250 18.29009 5539 ft 222 kts 118°
2026-05-04 15:40 42.41642 18.30899 5289 ft 221 kts 105°
2026-05-04 15:40 42.41419 18.32888 4950 ft 206 kts 91°
2026-05-04 15:41 42.41540 18.34749 4632 ft 190 kts 79°
2026-05-04 15:41 42.41912 18.36385 4339 ft 174 kts 68°
2026-05-04 15:41 42.42462 18.37772 4083 ft 160 kts 56°
2026-05-04 15:41 42.43142 18.38926 3848 ft 155 kts 46°
2026-05-04 15:42 42.43949 18.39877 3611 ft 154 kts 35°
2026-05-04 15:42 42.44865 18.40620 3391 ft 153 kts 25°
2026-05-04 15:42 42.45856 18.41134 3152 ft 152 kts 15°
2026-05-04 15:42 42.46893 18.41399 2956 ft 151 kts
2026-05-04 15:43 42.47945 18.41367 2711 ft 152 kts 351°
2026-05-04 15:43 42.48943 18.41008 2444 ft 150 kts 336°
2026-05-04 15:43 42.49840 18.40320 2349 ft 148 kts 323°
2026-05-04 15:43 42.50641 18.39441 2357 ft 148 kts 316°
2026-05-04 15:44 42.51348 18.38426 2314 ft 149 kts 308°
2026-05-04 15:44 42.51959 18.37299 2176 ft 149 kts 302°
2026-05-04 15:44 42.52493 18.36103 1892 ft 147 kts 298°
2026-05-04 15:44 42.52977 18.34890 1636 ft 146 kts 296°
2026-05-04 15:45 42.53443 18.33673 1426 ft 146 kts 296°
2026-05-04 15:45 42.53907 18.32456 1228 ft 145 kts 296°
2026-05-04 15:45 42.54374 18.31252 1050 ft 144 kts 296°
2026-05-04 15:45 42.54850 18.30084 878 ft 140 kts 297°
2026-05-04 15:46 42.55302 18.28924 673 ft 140 kts 298°
2026-05-04 15:46 42.55764 18.27767 555 ft 139 kts 297°
2026-05-04 15:46 42.56152 18.26775 534 ft 103 kts 299°
2026-05-04 15:46 42.56412 18.26123 534 ft 53 kts 297°
2026-05-04 15:47 42.56522 18.25838 535 ft 27 kts 298°
2026-05-04 15:47 42.56550 18.25660 535 ft 18 kts 246°
2026-05-04 15:47 42.56513 18.25562 534 ft 0 kts 243°
2026-05-04 15:47 42.56513 18.25560 534 ft 1 kts 243°
2026-05-04 15:48 42.56490 18.25531 534 ft 7 kts 198°
2026-05-04 15:48 42.56446 18.25578 534 ft 10 kts 124°
2026-05-04 15:48 42.56368 18.25766 534 ft 13 kts 118°
2026-05-04 15:49 42.56324 18.25879 534 ft 14 kts 118°
2026-05-04 15:49 42.56275 18.26004 534 ft 14 kts 118°
2026-05-04 15:49 42.56239 18.26065 534 ft 6 kts 159°
2026-05-04 15:49 42.56222 18.26060 534 ft 4 kts 202°
2026-05-04 15:50 42.56206 18.26049 534 ft 3 kts 206°
2026-05-04 15:50 42.56192 18.26039 534 ft 1 kts 208°
2026-05-04 15:50 42.56191 18.26039 534 ft 0 kts 208°